AO-07 1 07530U 74089B 15140.86799162 -.00000045 00000-0 -60850-5 0 9997 2 07530 101.5183 117.1795 0012036 358.8686 069.0735 12.53614333853831 FO-29 1 24278U 96046B 15141.16228103 .00000004 00000-0 37749-4 0 9991 2 24278 098.5381 113.6149 0351054 140.7485 286.1923 13.53051507926379 SO-33 1 25509U 98061B 15140.15703102 .00000239 00000-0 33120-4 0 9992 2 25509 031.4333 050.4569 0347962 187.6657 171.8545 14.30000649865401 RS-22 1 27939U 03042A 15141.66425711 .00000923 00000-0 17645-3 0 9993 2 27939 097.8393 304.7416 0014125 110.1005 250.1717 14.66034587622307 HO-68 1 36122U 09072B 15141.71735962 -.00000060 00000-0 -43517-4 0 9996 2 36122 100.1976 187.4653 0007530 175.5852 184.5330 13.16326780260977 AO-73 1 39444U 13066AE 15141.12195601 .00001990 00000-0 26132-3 0 9993 2 39444 097.7320 204.8716 0059042 222.8342 136.8263 14.80153979 79412 EO-79 1 40025U 14033R 15141.63840266 .00002907 00000-0 32987-3 0 9999 2 40025 097.9551 041.8639 0011417 276.3785 083.6133 14.87086245 49857 UO-11 1 14781U 84021B 15141.16893567 .00000800 00000-0 10639-3 0 9993 2 14781 097.8039 198.9133 0009331 151.1543 209.0188 14.82378480678025 AO-16 1 20439U 90005D 15140.83039133 .00000163 00000-0 75994-4 0 9991 2 20439 098.5394 077.4290 0009752 238.7119 183.5040 14.32540726322823 LO-19 1 20442U 90005G 15141.38635068 .00000130 00000-0 63702-4 0 9993 2 20442 098.5105 077.6149 0010868 223.9437 136.0884 14.32733712323101 AO-27 1 22825U 93061C 15141.13615981 .00000132 00000-0 68556-4 0 9994 2 22825 098.7066 091.2413 0009087 034.6641 086.2536 14.29878754129079 IO-26 1 22826U 93061D 15141.03533744 .00000149 00000-0 74591-4 0 9994 2 22826 098.7009 091.3113 0009485 027.0565 333.1110 14.30195336129205 GO-32 1 25397U 98043D 15141.11532503 .00000062 00000-0 45881-4 0 9990 2 25397 098.5177 092.4091 0002333 066.7255 358.2590 14.23544727875946 NO-44 1 26931U 01043C 15141.43992356 .00000144 00000-0 87251-4 0 9998 2 26931 067.0520 246.0868 0005932 266.2001 093.8422 14.30312176711974 SO-50 1 27607U 02058C 15141.72563113 .00000703 00000-0 12056-3 0 9994 2 27607 064.5554 279.5949 0080214 293.4445 065.8238 14.74717178667383 CO-55 1 27844U 03031E 15140.89274707 .00000289 00000-0 15124-3 0 9992 2 27844 098.6954 149.8089 0010198 026.8994 047.2761 14.21795648616562 CO-57 1 27848U 03031J 15141.68684632 .00000233 00000-0 12635-3 0 9999 2 27848 098.7051 150.4851 0010215 031.6562 077.7563 14.21443664616583 AO-51 1 28375U 04025K 15141.38158693 .00000287 00000-0 97477-4 0 9996 2 28375 098.2909 082.5979 0083841 051.1252 309.7379 14.41655993572632 CP3 1 31129U 07012N 15141.66857718 .00001484 00000-0 32793-3 0 9990 2 31129 097.9784 108.5839 0097684 037.1794 014.7364 14.55782461429262 CO-65 1 32785U 08021C 15141.19686383 .00001573 00000-0 18200-3 0 9992 2 32785 097.6508 185.7517 0014328 150.3330 287.1999 14.86814018382222 PRISM 1 33493U 09002B 15141.62456071 .00005260 00000-0 50857-3 0 9997 2 33493 098.2501 337.7374 0017469 059.3530 300.9403 14.93146837342616 SOHLA-1 1 33496U 09002E 15141.18598443 .00000500 00000-0 89118-4 0 9996 2 33496 098.2082 268.8448 0005142 244.3645 236.4873 14.71348056339205 TISAT-1 1 36799U 10035E 15141.73755432 .00002546 00000-0 28051-3 0 9997 2 36799 098.0147 241.8093 0011686 295.8694 190.6954 14.88408899263023 STUDSAT 1 36801U 10035G 15140.94014003 .00021042 00000-0 12469-2 0 9992 2 36801 098.0597 258.8901 0006365 224.4060 251.1977 15.11401903263850 ALMASAT-1 1 38078U 12006B 15141.74647708 .00020175 34438-5 34148-3 0 9995 2 38078 069.4563 307.0381 0486979 293.8614 061.2221 14.77741581171131 CUBEBUG-1 1 39153U 13018D 15141.22956751 .00001472 00000-0 20510-3 0 9998 2 39153 098.0174 225.6717 0016785 344.8542 015.2165 14.79179917111490 ESTCUBE-1 1 39161U 13021C 15141.60740903 .00001818 00000-0 30324-3 0 9991 2 39161 098.0708 224.7681 0010872 046.2724 313.9359 14.71132539109332 DUCHIFAT-1 1 40021U 14033M 15141.54483643 .00003742 00000-0 41400-3 0 9995 2 40021 097.9549 042.0598 0011957 274.1416 085.8446 14.87931627 49846 NANOSATCBR1 1 40024U 14033Q 15141.66216557 .00003369 00000-0 37714-3 0 9997 2 40024 097.9554 041.9916 0011239 273.6982 086.2916 14.87531223 49858 DTUSAT-2 1 40030U 14033W 15141.65695426 .00002806 00000-0 32153-3 0 9996 2 40030 097.9524 041.6429 0010729 265.8932 094.1047 14.86705299 49846 ANTELSAT 1 40034U 14033AA 15141.67973154 .00001898 00000-0 29761-3 0 9990 2 40034 097.9471 034.3067 0059222 203.7805 156.0669 14.72666717 49393 MET-2/21 1 22782U 93055A 15141.47110902 .00000091 00000-0 68185-4 0 9991 2 22782 082.5496 264.8638 0023047 039.0582 028.4620 13.83770262 96902 OKEAN-4 1 23317U 94066A 15140.83523054 .00001509 00000-0 16668-3 0 9997 2 23317 082.5368 111.1213 0021743 062.7645 012.9742 14.86637882113257 NOAA-14 1 23455U 94089A 15141.46330341 .00000035 00000-0 41235-4 0 9992 2 23455 098.7524 223.4645 0010034 150.9431 337.5494 14.14040870 51755 NOAA-15 1 25338U 98030A 15141.48661333 .00000179 00000-0 94551-4 0 9992 2 25338 098.7719 140.1057 0009522 243.1185 116.9021 14.25620696885039 RESURS 1 25394U 98043A 15140.88626567 .00000014 00000-0 24236-4 0 9992 2 25394 098.4628 096.9568 0001803 037.1233 022.3503 14.24457967876393 FENGYUN1 1 25730U 99025A 15140.85348291 .00001439 00000-0 78945-3 0 9996 2 25730 098.9429 105.7262 0016832 223.6801 209.9053 14.13339808825198 OKEAN-0 1 25860U 99039A 15140.53416751 .00000834 00000-0 12865-3 0 9994 2 25860 098.0918 108.5406 0001921 080.7221 032.5259 14.76026275851904 NOAA-16 1 26536U 00055A 15141.40104888 .00000045 00000-0 48056-4 0 9993 2 26536 098.9441 207.4020 0009639 312.4677 047.5679 14.13095126755873 NOAA-17 1 27453U 02032A 15141.46512391 .00000066 00000-0 45703-4 0 9996 2 27453 098.3385 128.7866 0010414 260.7816 099.2186 14.24882547670853 NOAA-18 1 28654U 05018A 15141.49351632 .00000157 00000-0 11071-3 0 9990 2 28654 099.1828 133.4869 0014999 039.1409 321.0844 14.12197354515309 NOAA-19 1 33591U 09005A 15141.45062489 .00000186 00000-0 12618-3 0 9991 2 33591 098.9880 091.2679 0012967 244.1072 115.8763 14.11934406323714 HUBBLE 1 20580U 90037B 15141.76170574 .00002299 00000-0 13674-3 0 9999 2 20580 028.4709 328.3793 0002760 319.8912 143.6089 15.07394297175810 ISS 1 25544U 98067A 15141.61712788 .00015774 00000-0 23624-3 0 9996 2 25544 051.6451 216.6943 0003815 325.7235 126.2437 15.55133578943902 CO-58 1 28895U 05043F 15141.72012640 .00000831 00000-0 17130-3 0 9995 2 28895 097.8217 330.8761 0017676 025.2607 334.9457 14.62762082509721 FALCON 1 30776U 07006E 15140.49085965 .00009930 00000-0 40225-3 0 9990 2 30776 035.4252 174.7012 0000815 023.6183 123.4113 15.23958852452076 MAST 1 31126U 07012K 15140.92285677 .00000992 00000-0 22299-3 0 9997 2 31126 097.9582 110.1967 0091603 021.8204 038.5978 14.56033035429528 CAPE1 1 31130U 07012P 15140.89025533 .00001394 00000-0 31048-3 0 9990 2 31130 097.9800 107.3194 0098462 041.4090 319.4518 14.55458056428913 COMPASS 1 32787U 08021E 15140.82043336 .00003848 00000-0 39778-3 0 9998 2 32787 097.6531 189.3304 0014449 139.4569 220.7728 14.90608518382437 AAUSAT2 1 32788U 08021F 15140.83343560 .00003888 00000-0 39176-3 0 9998 2 32788 097.6542 190.8098 0013928 136.4402 223.7920 14.91639354382521 DO-64 1 32789U 08021G 15141.70877934 .00006457 00000-0 52855-3 0 9997 2 32789 097.6726 202.1720 0010966 120.1513 354.5502 14.99606054383111 CO-66 1 32791U 08021J 15141.40767253 .00002659 00000-0 29001-3 0 9996 2 32791 097.6527 187.8264 0015019 143.4980 216.7264 14.88689643382335 RS-30 1 32953U 08025A 15141.59500091 .00000010 00000-0 -13620-7 0 9999 2 32953 082.5071 350.7868 0019260 135.3787 224.8857 12.43059871317306 METEOR-M 1 35865U 09049A 15141.68201854 .00000168 00000-0 94954-4 0 9995 2 35865 098.5025 182.9709 0002015 167.6354 192.4867 14.22025573294445 RS-38 1 35869U 09049E 15141.72013697 .00000078 00000-0 53992-4 0 9997 2 35869 098.4921 182.6510 0004260 179.8524 180.2613 14.22294526294493 JUGNU 1 37839U 11058B 15140.04534728 .00000475 00000-0 11182-3 0 9991 2 37839 019.9624 013.1186 0019027 096.5542 052.2607 14.12465341186236 SRMSAT 1 37841U 11058D 15140.16199782 .00000420 00000-0 86437-4 0 9990 2 37841 019.9727 038.5406 0011805 025.2955 131.4481 14.10477193185990 RAX-2 1 37853U 11061D 15140.52428819 .00008976 00000-0 55029-3 0 9999 2 37853 101.7157 337.9719 0197099 156.5126 259.5408 14.95802292192973 AUBIESAT 1 37854U 11061E 15141.14996142 .00008997 00000-0 53017-3 0 9996 2 37854 101.7230 342.2597 0191041 149.9116 331.2756 14.97937997193175 HRBE 1 37855U 11061F 15141.11715495 .00009082 00000-0 54301-3 0 9997 2 37855 101.7211 340.8802 0196031 152.1148 209.0733 14.96778179193107 HORYU-2 1 38340U 12025D 15140.89961121 .00001792 00000-0 27893-3 0 9997 2 38340 098.3109 110.1304 0011957 176.0559 184.0744 14.74241045161510 RS-40 1 38735U 12041C 15141.29930790 .00000040 00000-0 21992-3 0 9995 2 38735 082.4779 076.7432 0015395 238.3375 121.6179 12.42567607127577 PROITERES 1 38756U 12047B 15141.28242342 .00001301 00000-0 19747-3 0 9998 2 38756 098.2183 240.1136 0012871 030.6614 329.5338 14.75798195145030 BEESAT-3 1 39134U 13015E 15140.43670651 .00008298 00000-0 48709-3 0 9991 2 39134 064.8711 146.2811 0032205 255.9946 103.7596 15.11888164114509 BEESAT-2 1 39136U 13015G 15141.38963604 .00005126 00000-0 31861-3 0 9999 2 39136 064.8718 145.4189 0032651 255.3321 104.4181 15.10321517114616 ZACUBE-1 1 39417U 13066B 15141.41880693 .00001571 00000-0 21023-3 0 9996 2 39417 097.7322 204.9387 0059622 222.6916 136.9656 14.79641645 80675 TRITON-1 1 39427U 13066M 15140.78286144 .00001024 00000-0 17585-3 0 9998 2 39427 097.7176 193.1435 0114473 254.4220 104.4326 14.66590754 79844 DELFIN3XT 1 39428U 13066N 15141.17343018 .00001658 00000-0 28365-3 0 9998 2 39428 097.7170 191.8673 0123026 257.8783 100.8616 14.65291483 79784 GOMX-1 1 39430U 13066Q 15141.65211728 .00001255 00000-0 24209-3 0 9992 2 39430 097.7102 186.6754 0152536 273.5318 084.8434 14.58012696 79510 MO-76 1 39436U 13066W 15141.75656207 .00020997 00000-0 14403-2 0 9992 2 39436 097.7460 217.7711 0023889 191.2398 168.8298 15.05800983 81515 LO-74 1 39440U 13066AA 15141.39687925 .00001352 00000-0 20065-3 0 9994 2 39440 097.7267 200.4804 0081050 233.7611 125.6089 14.74463329 80388 PUCPSAT-1 1 39442U 13066AC 15141.19733014 .00002756 00000-0 29986-3 0 9995 2 39442 097.7404 211.8369 0032591 209.9179 150.0177 14.88480682 79851 SPROUT 1 39770U 14029E 15141.14039892 .00001083 00000-0 13728-3 0 9996 2 39770 097.8691 238.3284 0008448 293.0616 066.9716 14.83763713 53623 POPSAT-HIP1 1 40028U 14033U 15141.60689201 .00002734 00000-0 31153-3 0 9991 2 40028 097.9579 041.9029 0012697 270.5403 089.4354 14.86944751 49839 EO-80 1 40032U 14033Y 15141.66438209 .00002346 00000-0 27032-3 0 9992 2 40032 097.9541 041.6641 0010538 265.2468 094.7495 14.86635028 49844 VELOX-1 1 40057U 14034E 15141.62367013 .00002977 00000-0 44222-3 0 9990 2 40057 098.2159 219.2893 0010639 330.8398 029.2200 14.75762061 47969 DAURIA DX 1 1 40071U 14037C 15141.36147429 .00001448 00000-0 19729-3 0 9993 2 40071 098.3579 211.6693 0008046 335.0267 025.0551 14.80359205 46822 UKUBE-1 1 40074U 14037F 15141.42994137 .00003095 00000-0 39622-3 0 9993 2 40074 098.3602 212.4376 0004286 350.9821 009.1307 14.82118643 46871 HODOYOSHI-1 1 40299U 14070B 15141.33690387 .00005594 00000-0 26873-3 0 9999 2 40299 097.4562 223.1873 0011936 221.7483 203.4933 15.19177263 29740 CHUBUSAT-1 1 40300U 14070C 15141.46677215 .00005961 00000-0 29958-3 0 9996 2 40300 097.4538 222.6832 0021346 224.3211 264.3058 15.17441348 29727 QSAT-EOS 1 40301U 14070D 15141.48235103 .00011035 00000-0 55980-3 0 9998 2 40301 097.4501 222.0979 0031412 225.5511 191.1564 15.16666852 29698 TSUBAME 1 40302U 14070E 15141.48032353 .00006524 00000-0 36808-3 0 9996 2 40302 097.4480 221.1502 0042185 228.7640 225.8508 15.12728045 29630 FIREBIRD FU3 1 40377U 15003B 15141.62470637 .00012905 00000-0 64455-3 0 9991 2 40377 099.1170 170.1808 0158681 340.8669 018.6627 15.07246169 16558 FIREBIRD FU4 1 40378U 15003C 15141.68929946 .00013224 00000-0 65779-3 0 9995 2 40378 099.1162 170.2618 0159541 340.5489 018.9673 15.07268549 16564 GRIFEX 1 40379U 15003D 15141.64807150 .00010163 00000-0 51738-3 0 9993 2 40379 099.1192 170.1625 0159273 342.0234 017.5371 15.06634397 16558 LAMBDA-SAT 1 40458U 98067GB 15136.30676273 .20783109 12527-4 14817-2 0 9995 2 40458 051.6075 233.7697 0010355 318.5347 043.1720 16.39926603 21161 /EX
